"2010-06-27 00:00:00",236620,11.63,339.9,6.733,0.698,24.26,107.403,18.23,19.41,41.39,0,110.6,13.24,19.04,301.9
"2010-06-27 00:00:30",236621,9.17,324.5,6.626,1.701,20.89,107.4445,18.33,19.22,39.05,0,110.6,13.24,19.15,286.5
"2010-06-27 00:01:00",236622,6.535,323.6,4.126,0.539,19.13,107.4713,18.4,19.17,41.51,0,110.6,13.27,19.22,285.6
"2010-06-27 00:01:30",236623,6.573,336.9,6.961,1.345,21.28,107.4741,18.41,19.35,41.69,0,110.6,13.24,19.23,298.9
"2010-06-27 00:02:00",236624,6.846,342.7,5.822,1.412,22.78,107.4777,18.42,19.45,41.89,0,110.6,13.24,19.24,304.7
"2010-06-27 00:02:30",236625,6.631,339.5,6.778,1.254,23.41,107.4713,18.4,19.51,41.47,0,110.6,13.24,19.22,301.5
"2010-06-27 00:03:00",236626,7.659,321.1,5.771,1.076,23.35,107.4738,18.41,19.51,41.1,0,110.6,13.24,19.23,283.1
"2010-06-27 00:03:30",236627,7.009,316.4,8.07,1.137,22.79,107.5011,18.48,19.42,40.64,0,110.6,13.24,19.30,278.4
"2010-06-27 00:04:00",236628,6.024,308.5,4.984,0.902,20.79,107.5434,18.59,19.31,39,0,110.6,13.24,19.41,270.5
"2010-06-27 00:04:30",236629,6.265,301.9,11.29,0.989,22.85,107.6051,18.75,19.56,38.48,0,110.6,13.24,19.56,263.9
"2010-06-27 00:05:00",236630,5.91,285.3,7.147,1.13,22.68,107.6637,18.9,19.67,38.44,0,110.6,13.24,19.71,247.3
"2010-06-27 00:05:30",236631,3.872,285.3,5.923,0.644,20.79,107.7144,19.03,19.67,37.95,0,110.6,13.24,19.85,247.3
"2010-06-27 00:06:00",236632,3.598,294.1,8.74,0.951,23.23,107.7719,19.17,19.91,37.76,0,110.6,13.25,19.99,256.1
"2010-06-27 00:06:30",236633,3.989,301,10.4,1.215,25.02,107.8468,19.37,20.14,36.57,0,110.6,13.25,20.19,263.0
"2010-06-27 00:07:00",236634,4.133,297.3,13.55,0.941,24.88,107.9119,19.53,20.32,36.29,0,110.6,13.25,20.35,259.3
"2010-06-27 00:07:30",236635,3.125,315.3,12.38,1.256,22.59,107.9446,19.62,20.27,36.27,0,110.6,13.25,20.44,277.3
"2010-06-27 00:08:00",236636,2.596,320.6,15.25,0.417,11.95,107.9268,19.57,20.19,37.24,0,110.6,13.28,20.39,282.6
"2010-06-27 00:08:30",236637,4.59,344.5,6.426,0.865,18.66,107.8263,19.31,20.1,40.51,0,110.6,13.28,20.13,306.5
"2010-06-27 00:09:00",236638,5.61,338,4.402,0.418,18.65,107.702,19,19.94,40.68,0,110.6,13.28,19.81,300.0
"2010-06-27 00:09:30",236639,4.883,333.3,5.749,0.411,19.05,107.6172,18.78,19.8,41.15,0,110.6,13.28,19.60,295.3
"2010-06-27 00:10:00",236640,5.692,335.5,5.138,0.326,17.05,107.547,18.6,19.69,42.04,0,110.6,13.28,19.41,297.5
"2010-06-27 00:10:30",236641,5.37,338.7,7.453,0.443,17.58,107.5023,18.48,19.58,41.98,0,110.6,13.28,19.30,300.7
"2010-06-27 00:11:00",236642,3.358,356.5,5.566,0.805,17.36,107.4702,18.4,19.51,42.62,0,110.6,13.28,19.22,318.5
"2010-06-27 00:11:30",236643,3.644,357.5,6.463,1.119,20.09,107.439,18.32,19.42,43.32,0,110.6,13.28,19.14,319.5
"2010-06-27 00:12:00",236644,2.569,0.567,7.34,0.659,19.65,107.4078,18.24,19.35,43.3,0,110.6,13.29,19.06,322.6
"2010-06-27 00:12:30",236645,2.234,0.748,7.16,0.594,19.08,107.3812,18.17,19.28,43.85,0,110.6,13.29,18.99,322.7
"2010-06-27 00:13:00",236646,2.617,0.372,9.16,0.844,18.95,107.3455,18.08,19.21,44.06,0,110.6,13.29,18.90,322.4
"2010-06-27 00:13:30",236647,2.75,357.4,7.31,0.848,18.73,107.3168,18.01,19.13,44.56,0,110.6,13.29,18.82,319.4
"2010-06-27 00:14:00",236648,2.298,0.132,4.727,0.442,18.47,107.286,17.93,19.05,45.29,0,110.6,13.29,18.74,322.1
"2010-06-27 00:14:30",236649,3.33,1.823,7.863,0.808,18.88,107.2494,17.83,18.95,45.22,0,110.6,13.29,18.65,323.8
"2010-06-27 00:15:00",236650,2.753,10.75,5.179,0.505,18.88,107.2382,17.81,18.9,45.42,0,110.6,13.29,18.62,332.8
"2010-06-27 00:15:30",236651,2.507,10.17,7.857,0.785,18.8,107.2359,17.8,18.86,45.69,0,110.6,13.3,18.61,332.2
"2010-06-27 00:16:00",236652,5.214,21.51,2.812,0.755,19.67,107.2294,17.78,18.82,44.87,0,110.6,13.3,18.60,343.5
"2010-06-27 00:16:30",236653,5.021,26.51,4.678,0.498,19.68,107.2509,17.84,18.82,43.92,0,110.5,13.3,18.65,348.5
"2010-06-27 00:17:00",236654,4.935,33.16,2.865,0.728,19.11,107.2714,17.89,18.85,44.9,0,110.6,13.3,18.71,355.2
"2010-06-27 00:17:30",236655,5.304,33.33,4.914,0.665,18.71,107.2736,17.9,18.86,45.03,0,110.6,13.3,18.71,355.3
"2010-06-27 00:18:00",236656,5.247,36.27,2.844,0.473,18.52,107.2787,17.91,18.86,45.13,0,110.6,13.3,18.72,358.3
"2010-06-27 00:18:30",236657,4.78,37.13,6.715,0.601,18.44,107.2793,17.91,18.86,44.96,0,110.6,13.3,18.73,359.1
"2010-06-27 00:19:00",236658,4.332,37.17,2.112,0.299,18.44,107.3044,17.98,18.89,43.93,0,110.6,13.3,18.79,359.2
"2010-06-27 00:19:30",236659,4.869,39.91,2.902,0.233,18.45,107.3386,18.06,18.94,43.04,0,110.6,13.3,18.88,1.9
"2010-06-27 00:20:00",236660,5.325,38.74,2.218,0.238,17.99,107.3692,18.14,18.99,43.96,0,110.6,13.3,18.96,0.7
"2010-06-27 00:20:30",236661,5.596,44.09,2.106,0.298,18.05,107.3738,18.15,19.02,42.76,0,110.6,13.3,18.97,6.1
"2010-06-27 00:21:00",236662,4.771,40.6,2.689,0.245,17.84,107.3816,18.17,19.04,43.24,0,110.6,13.3,18.99,2.6
"2010-06-27 00:21:30",236663,4.696,41.16,2.45,0.197,17.77,107.4035,18.23,19.07,43.03,0,110.6,13.3,19.05,3.2
"2010-06-27 00:22:00",236664,4.21,36.95,4.24,0.644,17.67,107.4049,18.23,19.08,43.26,0,110.6,13.3,19.05,359.0
"2010-06-27 00:22:30",236665,5.265,40.51,3.522,0.172,17.54,107.4036,18.23,19.12,43.5,0,110.6,13.3,19.05,2.5
"2010-06-27 00:23:00",236666,5.93,43.95,1.429,0.442,17.51,107.4039,18.23,19.12,43.75,0,110.6,13.3,19.05,6.0
"2010-06-27 00:23:30",236667,7.345,47.64,5.741,0.345,17.38,107.4045,18.23,19.12,44.06,0,110.6,13.3,19.05,9.6
"2010-06-27 00:24:00",236668,8.75,39.94,3.286,1.262,17.27,107.4036,18.23,19.11,45.17,0,110.6,13.3,19.05,1.9
"2010-06-27 00:24:30",236669,8.6,42.73,5.226,0.918,17.05,107.3932,18.2,19.08,46.89,0,110.6,13.3,19.02,4.7
"2010-06-27 00:25:00",236670,8.73,46.14,2.375,0.44,17.12,107.3698,18.14,19.07,47.34,0,110.6,13.3,18.96,8.1
"2010-06-27 00:25:30",236671,8.37,45.08,2.466,0.483,17.17,107.3417,18.07,19.03,47.29,0,110.6,13.3,18.89,7.1
"2010-06-27 00:26:00",236672,7.495,39.56,2.895,0.427,17.3,107.3335,18.05,18.97,46.61,0,110.6,13.29,18.87,1.6
"2010-06-27 00:26:30",236673,7.001,39.35,2.842,0.419,17.36,107.3188,18.01,18.94,45.91,0,110.6,13.29,18.83,1.3
"2010-06-27 00:27:00",236674,6.98,42.05,2.222,0.361,17.1,107.3025,17.97,18.91,47.42,0,110.6,13.29,18.79,4.0
"2010-06-27 00:27:30",236675,7.263,42.89,1.91,0.247,17.15,107.2932,17.95,18.88,47.82,0,110.6,13.29,18.76,4.9
"2010-06-27 00:28:00",236676,7.207,46.97,3.091,0.324,16.96,107.2663,17.88,18.84,49.19,0,110.6,13.29,18.69,9.0
"2010-06-27 00:28:30",236677,7.529,54.5,3.176,0.475,16.86,107.2455,17.82,18.78,50.87,0,110.6,13.29,18.64,16.5
"2010-06-27 00:29:00",236678,7.589,43.72,2.49,0.397,16.81,107.2169,17.75,18.75,52,0,110.6,13.29,18.57,5.7
"2010-06-27 00:29:30",236679,6.794,42.72,2.549,0.448,16.48,107.1646,17.62,18.65,54.52,0,110.6,13.29,18.43,4.7
"2010-06-27 00:30:00",236680,6.473,48.42,3.117,0.477,16.68,107.1057,17.47,18.54,54.3,0,110.6,13.28,18.28,10.4
"2010-06-27 00:30:30",236681,7.238,47.98,3.115,0.4,16.66,107.0676,17.37,18.46,54.36,0,110.6,13.28,18.18,10.0
"2010-06-27 00:31:00",236682,8.06,46.55,2.575,0.253,16.54,107.0359,17.29,18.4,54.55,0,110.6,13.29,18.10,8.5
"2010-06-27 00:31:30",236683,8.24,50.58,1.573,0.207,16.59,107.0122,17.23,18.32,54.29,0,110.6,13.29,18.04,12.6
"2010-06-27 00:32:00",236684,8.4,50.9,1.475,0.214,16.7,106.9956,17.18,18.27,54.47,0,110.6,13.29,18.00,12.9
"2010-06-27 00:32:30",236685,8.42,50.06,1.694,0.415,16.69,106.977,17.14,18.23,54.78,0,110.6,13.29,17.95,12.1
"2010-06-27 00:33:00",236686,8.71,47.43,2.09,0.261,16.65,106.9618,17.1,18.19,54.56,0,110.6,13.29,17.91,9.4
"2010-06-27 00:33:30",236687,8.65,48.77,1.58,0.346,16.61,106.9494,17.07,18.13,54.52,0,110.6,13.29,17.88,10.8
"2010-06-27 00:34:00",236688,8.56,50.14,2.197,0.525,16.51,106.928,17.01,18.08,55.23,0,110.6,13.29,17.82,12.1
"2010-06-27 00:34:30",236689,9.98,47.93,0.992,0.347,16.93,106.9196,16.99,18.03,53.94,0,110.7,13.29,17.80,9.9
"2010-06-27 00:35:00",236690,10.16,47.92,1.141,0.167,17.17,106.9198,16.99,18,52.36,0,110.7,13.29,17.80,9.9
"2010-06-27 00:35:30",236691,9.87,47.53,1.161,0.12,17.29,106.928,17.01,17.99,51.89,0,110.7,13.29,17.82,9.5
"2010-06-27 00:36:00",236692,9.44,45.47,0.978,0.189,17.25,106.9339,17.03,18,51.56,0,110.7,13.29,17.84,7.5
"2010-06-27 00:36:30",236693,9.23,45.35,1.58,0.202,17.24,106.9615,17.1,18.03,51.29,0,110.7,13.29,17.91,7.3
"2010-06-27 00:37:00",236694,8.59,43.21,0.871,0.191,17.14,106.9795,17.14,18.05,51.2,0,110.7,13.28,17.95,5.2
"2010-06-27 00:37:30",236695,8.34,41.35,3.116,0.439,17.1,106.9962,17.19,18.08,51.03,0,110.7,13.28,18.00,3.3
"2010-06-27 00:38:00",236696,7.261,36.62,1.438,0.304,17.18,107.0218,17.25,18.1,51.09,0,110.7,13.28,18.06,358.6
"2010-06-27 00:38:30",236697,6.419,37.13,1.947,0.25,17.1,107.0319,17.28,18.15,51.02,0,110.7,13.28,18.09,359.1
"2010-06-27 00:39:00",236698,6.632,39.54,1.995,0.168,17.04,107.0603,17.35,18.16,50.8,0,110.7,13.28,18.16,1.5
"2010-06-27 00:39:30",236699,6.89,40.29,1.799,0.315,17.08,107.0614,17.35,18.19,50.55,0,110.7,13.28,18.17,2.3
"2010-06-27 00:40:00",236700,6.371,39.01,1.616,0.239,17.04,107.08,17.4,18.22,50.34,0,110.7,13.28,18.21,1.0
"2010-06-27 00:40:30",236701,6.343,39.2,1.879,0.309,17.07,107.0901,17.43,18.25,50.26,0,110.7,13.28,18.24,1.2
"2010-06-27 00:41:00",236702,6.778,43.31,1.335,0.172,17.1,107.087,17.42,18.28,49.9,0,110.7,13.28,18.23,5.3
"2010-06-27 00:41:30",236703,6.36,41.69,2.099,0.2,17.19,107.1015,17.46,18.3,49.8,0,110.7,13.28,18.27,3.7
"2010-06-27 00:42:00",236704,5.919,41.8,2.39,0.258,17.27,107.1099,17.48,18.3,49.69,0,110.7,13.28,18.29,3.8
"2010-06-27 00:42:30",236705,6.297,42.45,1.395,0.206,17.29,107.1094,17.48,18.32,49.45,0,110.7,13.28,18.29,4.5
"2010-06-27 00:43:00",236706,6.581,44.31,0.689,0.141,17.35,107.1054,17.47,18.34,49.29,0,110.7,13.28,18.28,6.3
"2010-06-27 00:43:30",236707,6.369,44.63,1.123,0.103,17.44,107.103,17.46,18.33,49.15,0,110.7,13.28,18.27,6.6
"2010-06-27 00:44:00",236708,6.487,46.92,1.198,0.188,17.49,107.103,17.46,18.34,49.01,0,110.7,13.27,18.27,8.9
"2010-06-27 00:44:30",236709,6.612,48.53,1.141,0.336,17.6,107.1003,17.45,18.33,48.86,0,110.7,13.27,18.27,10.5
"2010-06-27 00:45:00",236710,6.662,48.98,1.11,0.215,17.65,107.1006,17.45,18.34,48.73,0,110.7,13.27,18.27,11.0
"2010-06-27 00:45:30",236711,7.081,49.81,0.603,0.127,17.64,107.0985,17.45,18.35,48.73,0,110.7,13.27,18.26,11.8
"2010-06-27 00:46:00",236712,7.477,48.65,0.688,0.161,17.62,107.097,17.44,18.34,49.03,0,110.7,13.27,18.26,10.7
"2010-06-27 00:46:30",236713,7.561,48.41,0.694,0.087,17.71,107.0939,17.44,18.35,48.67,0,110.7,13.27,18.25,10.4
"2010-06-27 00:47:00",236714,7.517,48.32,0.905,0.169,17.76,107.0938,17.44,18.34,48.6,0,110.7,13.27,18.25,10.3
"2010-06-27 00:47:30",236715,7.612,49.17,0.801,0.097,17.66,107.0954,17.44,18.33,48.57,0,110.7,13.27,18.25,11.2
"2010-06-27 00:48:00",236716,7.709,48.97,1.101,0.184,17.65,107.0979,17.45,18.34,48.84,0,110.7,13.28,18.26,11.0
"2010-06-27 00:48:30",236717,7.292,51.38,1.811,0.381,17.38,107.0894,17.42,18.35,50.18,0,110.7,13.28,18.24,13.4
"2010-06-27 00:49:00",236718,6.922,58.73,2.079,0.46,16.87,107.0581,17.34,18.33,54.11,0,110.7,13.28,18.16,20.7
"2010-06-27 00:49:30",236719,7.406,58.66,1.682,0.262,17.15,107.0274,17.27,18.28,51.57,0,110.7,13.28,18.08,20.7
"2010-06-27 00:50:00",236720,6.66,59.54,3.396,0.312,16.57,106.9823,17.15,18.23,58.14,0,110.7,13.28,17.96,21.5
"2010-06-27 00:50:30",236721,7.345,64.25,2.592,0.681,16.92,106.935,17.03,18.13,55.41,0,110.7,13.28,17.84,26.2
"2010-06-27 00:51:00",236722,7.339,61.21,1.066,0.331,17.46,106.9257,17,18.06,50.99,0,110.7,13.28,17.82,23.2
"2010-06-27 00:51:30",236723,7.062,58.01,1.407,0.209,17.59,106.9265,17.01,18.03,50.28,0,110.7,13.28,17.82,20.0
"2010-06-27 00:52:00",236724,6.594,59.31,1.156,0.278,17.57,106.9516,17.07,18.03,49.85,0,110.7,13.28,17.88,21.3
"2010-06-27 00:52:30",236725,5.603,53.97,3.104,0.286,17.55,106.9814,17.15,18.07,49.34,0,110.7,13.28,17.96,16.0
"2010-06-27 00:53:00",236726,6.004,57.01,2.241,0.36,17.62,107.0166,17.24,18.11,49.04,0,110.7,13.28,18.05,19.0
"2010-06-27 00:53:30",236727,6.232,58.79,2.344,0.699,17.26,107.0327,17.28,18.15,50.16,0,110.7,13.28,18.09,20.8
"2010-06-27 00:54:00",236728,7.599,59.38,1.726,0.532,16.92,107.0231,17.25,18.18,54.15,0,110.7,13.28,18.07,21.4
"2010-06-27 00:54:30",236729,6.949,56.87,2.583,0.314,17.77,107.0065,17.21,18.15,50.02,0,110.7,13.28,18.02,18.9
"2010-06-27 00:55:00",236730,7.043,55.75,1.571,0.236,17.73,107.0267,17.26,18.16,49.46,0,110.7,13.28,18.08,17.8
"2010-06-27 00:55:30",236731,7.022,56.04,1.304,0.15,17.8,107.0366,17.29,18.19,49.25,0,110.7,13.28,18.10,18.0
"2010-06-27 00:56:00",236732,6.773,54.64,0.631,0.12,17.72,107.0608,17.35,18.21,49.01,0,110.7,13.28,18.16,16.6
"2010-06-27 00:56:30",236733,7.041,54.55,1.041,0.112,17.71,107.0791,17.4,18.25,49.03,0,110.7,13.28,18.21,16.5
"2010-06-27 00:57:00",236734,7.232,55.48,0.297,0.106,17.66,107.0946,17.44,18.3,49.22,0,110.7,13.28,18.25,17.5
"2010-06-27 00:57:30",236735,7.451,56.39,1.062,0.09,17.55,107.0946,17.44,18.31,50.43,0,110.7,13.28,18.25,18.4
"2010-06-27 00:58:00",236736,7.501,58.57,1.369,0.177,17.21,107.0946,17.44,18.32,50.98,0,110.7,13.28,18.25,20.6
"2010-06-27 00:58:30",236737,7.401,59.98,0.742,0.099,17.05,107.0715,17.38,18.29,51.59,0,110.7,13.28,18.19,22.0
"2010-06-27 00:59:00",236738,7.497,60.44,1.029,0.168,16.92,107.0541,17.33,18.27,51.99,0,110.7,13.28,18.15,22.4
"2010-06-27 00:59:30",236739,7.505,60.54,1.178,0.132,16.83,107.0245,17.26,18.24,52.96,0,110.7,13.27,18.07,22.5
"2010-06-27 01:00:00",236740,7.012,56.36,1.772,0.244,17.73,107.0183,17.24,18.2,50.16,0,110.7,13.27,18.05,18.4
"2010-06-27 01:00:30",236741,6.612,54.27,1.355,0.21,17.71,107.0366,17.29,18.2,48.95,0,110.7,13.27,18.10,16.3
"2010-06-27 01:01:00",236742,6.585,54.15,0.866,0.125,17.6,107.0712,17.38,18.24,48.59,0,110.7,13.27,18.19,16.2
"2010-06-27 01:01:30",236743,6.316,53.88,1.376,0.168,17.54,107.1047,17.46,18.3,47.99,0,110.7,13.27,18.28,15.9
"2010-06-27 01:02:00",236744,6.168,56.88,1.612,0.164,17.51,107.143,17.56,18.37,47.64,0,110.7,13.27,18.38,18.9
"2010-06-27 01:02:30",236745,5.704,58.32,1.68,0.167,17.55,107.1771,17.65,18.44,47.06,0,110.7,13.27,18.46,20.3
"2010-06-27 01:03:00",236746,5.916,61.78,1.693,0.148,17.45,107.2109,17.74,18.5,46.94,0,110.7,13.27,18.55,23.8
"2010-06-27 01:03:30",236747,5.828,60.45,2.527,0.142,17.37,107.2396,17.81,18.56,46.62,0,110.7,13.27,18.62,22.5
"2010-06-27 01:04:00",236748,6.124,64.49,1.322,0.153,17.23,107.2649,17.87,18.63,46.61,0,110.7,13.27,18.69,26.5
"2010-06-27 01:04:30",236749,6.066,66.08,1.915,0.209,17.38,107.2911,17.94,18.67,46.25,0,110.7,13.27,18.76,28.1
"2010-06-27 01:05:00",236750,6.295,69.79,1.135,0.132,17.35,107.3035,17.97,18.72,46.23,0,110.7,13.27,18.79,31.8
"2010-06-27 01:05:30",236751,6.342,70.09,2.063,0.173,17.42,107.3297,18.04,18.76,45.55,0,110.7,13.27,18.86,32.1
"2010-06-27 01:06:00",236752,6.214,72.88,2.167,0.147,17.46,107.3491,18.09,18.81,45.16,0,110.7,13.27,18.91,34.9
"2010-06-27 01:06:30",236753,6.52,74.46,0.823,0.197,17.41,107.3627,18.13,18.88,45.5,0,110.7,13.27,18.94,36.5
"2010-06-27 01:07:00",236754,6.437,76.11,1.175,0.144,17.39,107.3686,18.14,18.91,45.44,0,110.7,13.27,18.96,38.1
"2010-06-27 01:07:30",236755,6.703,78.78,0.824,0.172,17.53,107.3923,18.2,18.95,44.8,0,110.7,13.27,19.02,40.8
"2010-06-27 01:08:00",236756,6.663,76.31,1.6,0.159,17.47,107.3899,18.19,18.97,44.35,0,110.7,13.27,19.01,38.3
"2010-06-27 01:08:30",236757,6.508,75.87,2.222,0.125,17.49,107.4104,18.25,19,44.31,0,110.7,13.27,19.06,37.9
"2010-06-27 01:09:00",236758,6.773,77.79,0.835,0.091,17.52,107.4228,18.28,19.06,43.92,0,110.7,13.27,19.10,39.8
"2010-06-27 01:09:30",236759,7.021,78.8,0.563,0.105,17.51,107.4232,18.28,19.08,43.71,0,110.7,13.27,19.10,40.8
"2010-06-27 01:10:00",236760,7.331,79.35,1.105,0.11,17.41,107.4353,18.31,19.11,43.62,0,110.7,13.27,19.13,41.3
"2010-06-27 01:10:30",236761,7.363,81.4,0.303,0.083,17.44,107.4466,18.34,19.14,43.54,0,110.7,13.27,19.16,43.4
"2010-06-27 01:11:00",236762,7.311,81.4,0.288,0.102,17.36,107.4396,18.32,19.14,43.63,0,110.7,13.27,19.14,43.4
"2010-06-27 01:11:30",236763,7.492,80.3,0.477,0.086,17.47,107.4381,18.32,19.15,43.63,0,110.7,13.27,19.13,42.3
"2010-06-27 01:12:00",236764,7.333,80.3,0.471,0.053,17.62,107.4326,18.3,19.16,43.55,0,110.7,13.27,19.12,42.3
"2010-06-27 01:12:30",236765,7.267,80.1,0.81,0.158,17.66,107.4326,18.3,19.19,43.39,0,110.7,13.27,19.12,42.1
"2010-06-27 01:13:00",236766,6.795,78.6,1.276,0.215,17.67,107.4332,18.31,19.18,43.13,0,110.7,13.27,19.12,40.6
"2010-06-27 01:13:30",236767,6.904,78.07,0.748,0.05,17.61,107.4429,18.33,19.2,43.21,0,110.7,13.27,19.15,40.1
"2010-06-27 01:14:00",236768,6.649,77.51,0.506,0.124,17.55,107.4629,18.38,19.21,43.1,0,110.7,13.27,19.20,39.5
"2010-06-27 01:14:30",236769,6.619,78.34,0.707,0.093,17.62,107.4637,18.38,19.25,42.97,0,110.7,13.27,19.20,40.3
"2010-06-27 01:15:00",236770,6.406,78.94,0.796,0.061,17.64,107.4637,18.38,19.27,42.84,0,110.7,13.27,19.20,40.9
"2010-06-27 01:15:30",236771,6.269,80.2,0.705,0.072,17.65,107.469,18.4,19.27,42.77,0,110.7,13.27,19.21,42.2
"2010-06-27 01:16:00",236772,5.975,81.2,0.976,0.218,17.74,107.4916,18.46,19.3,42.47,0,110.8,13.27,19.27,43.2
"2010-06-27 01:16:30",236773,5.581,82,1.83,0.147,17.69,107.4975,18.47,19.32,42.17,0,110.7,13.26,19.29,44.0
"2010-06-27 01:17:00",236774,5.414,84.2,1.44,0.175,17.62,107.5034,18.49,19.35,42.07,0,110.8,13.26,19.30,46.2
"2010-06-27 01:17:30",236775,4.943,84.8,1.112,0.153,17.68,107.5304,18.56,19.37,41.67,0,110.8,13.26,19.37,46.8
"2010-06-27 01:18:00",236776,4.953,85.2,3.203,0.115,17.61,107.5312,18.56,19.4,41.69,0,110.8,13.26,19.37,47.2
"2010-06-27 01:18:30",236777,4.543,89.8,2.441,0.157,17.6,107.5388,18.58,19.43,41.43,0,110.8,13.26,19.39,51.8
"2010-06-27 01:19:00",236778,4.23,92.6,4.983,0.3,17.51,107.5628,18.64,19.44,41.36,0,110.8,13.26,19.46,54.6
"2010-06-27 01:19:30",236779,4.731,90.1,2.75,0.113,17.43,107.565,18.64,19.46,41.52,0,110.8,13.26,19.46,52.1
"2010-06-27 01:20:00",236780,4.655,90.5,1.997,0.169,17.42,107.565,18.64,19.48,41.43,0,110.8,13.26,19.46,52.5
"2010-06-27 01:20:30",236781,4.642,91,2.191,0.208,17.49,107.5653,18.64,19.5,41.39,0,110.8,13.26,19.46,53.0
"2010-06-27 01:21:00",236782,4.167,91.4,1.735,0.226,17.51,107.5746,18.67,19.5,41.25,0,110.8,13.26,19.49,53.4
"2010-06-27 01:21:30",236783,3.713,94.1,2.83,0.192,17.46,107.59,18.71,19.52,40.9,0,110.8,13.26,19.53,56.1
"2010-06-27 01:22:00",236784,4.139,93.1,2.677,0.19,17.41,107.5958,18.72,19.54,40.95,0,110.8,13.26,19.54,55.1
"2010-06-27 01:22:30",236785,4.347,92.3,1.286,0.113,17.5,107.5921,18.71,19.55,41.02,0,110.8,13.26,19.53,54.3
"2010-06-27 01:23:00",236786,3.971,96.6,2.133,0.099,17.5,107.5903,18.71,19.56,40.84,0,110.8,13.26,19.53,58.6
"2010-06-27 01:23:30",236787,4.066,96.8,2.318,0.325,17.51,107.5891,18.71,19.57,40.79,0,110.8,13.26,19.52,58.8
"2010-06-27 01:24:00",236788,4.218,98.3,3.408,0.226,17.5,107.5932,18.72,19.58,40.79,0,110.8,13.26,19.53,60.3
"2010-06-27 01:24:30",236789,4.128,96.3,4.974,0.402,17.51,107.6027,18.74,19.58,40.77,0,110.8,13.26,19.56,58.3
"2010-06-27 01:25:00",236790,4.148,96.5,1.928,0.169,17.53,107.6064,18.75,19.6,40.89,0,110.8,13.26,19.57,58.5
"2010-06-27 01:25:30",236791,4.129,96.1,2.224,0.206,17.54,107.608,18.75,19.6,40.76,0,110.8,13.26,19.57,58.1
"2010-06-27 01:26:00",236792,3.957,98.4,2.905,0.119,17.58,107.6023,18.74,19.63,40.58,0,110.8,13.26,19.56,60.4
"2010-06-27 01:26:30",236793,3.872,101.1,2.309,0.114,17.58,107.6032,18.74,19.61,40.48,0,110.8,13.26,19.56,63.1
"2010-06-27 01:27:00",236794,3.725,102.9,2.022,0.107,17.54,107.5999,18.73,19.62,40.46,0,110.8,13.26,19.55,64.9
"2010-06-27 01:27:30",236795,3.623,105.9,1.447,0.17,17.42,107.5998,18.73,19.65,40.44,0,110.8,13.26,19.55,67.9
"2010-06-27 01:28:00",236796,3.516,105.8,0.792,0.079,17.46,107.6134,18.77,19.65,40.35,0,110.8,13.26,19.59,67.8
"2010-06-27 01:28:30",236797,3.322,108.5,2.373,0.101,17.45,107.6246,18.8,19.65,40.25,0,110.8,13.26,19.61,70.5
"2010-06-27 01:29:00",236798,3.31,110.1,1.397,0.068,17.46,107.6283,18.81,19.66,40.1,0,110.8,13.26,19.62,72.1
"2010-06-27 01:29:30",236799,3.281,112.4,0.867,0.06,17.58,107.63,18.81,19.68,39.95,0,110.8,13.26,19.63,74.4
"2010-06-27 01:30:00",236800,3.342,110.9,1.386,0.065,17.51,107.63,18.81,19.68,39.9,0,110.8,13.26,19.63,72.9
"2010-06-27 01:30:30",236801,3.353,111,1.458,0.114,17.51,107.63,18.81,19.69,39.92,0,110.8,13.26,19.63,73.0
"2010-06-27 01:31:00",236802,3.305,112.6,1.147,0.049,17.58,107.6331,18.82,19.7,39.82,0,110.8,13.26,19.64,74.6
"2010-06-27 01:31:30",236803,3.33,114,1.133,0.057,17.62,107.6384,18.83,19.71,39.84,0,110.8,13.26,19.65,76.0
"2010-06-27 01:32:00",236804,3.288,114.4,2.305,0.085,17.56,107.641,18.84,19.72,39.89,0,110.8,13.26,19.66,76.4
"2010-06-27 01:32:30",236805,3.156,118.2,1.393,0.066,17.54,107.648,18.86,19.74,39.8,0,110.8,13.26,19.67,80.2
"2010-06-27 01:33:00",236806,2.978,124,2.036,0.111,17.57,107.653,18.87,19.74,39.91,0,110.8,13.26,19.69,86.0
"2010-06-27 01:33:30",236807,2.917,123.7,2.247,0.059,17.61,107.6547,18.87,19.72,39.82,0,110.8,13.25,19.69,85.7
"2010-06-27 01:34:00",236808,2.749,125.4,2.239,0.103,17.66,107.6505,18.86,19.73,39.92,0,110.8,13.25,19.68,87.4
"2010-06-27 01:34:30",236809,2.669,127.1,2.036,0.104,17.74,107.6499,18.86,19.72,39.83,0,110.8,13.25,19.68,89.1
"2010-06-27 01:35:00",236810,2.597,128.6,1.239,0.115,17.83,107.6442,18.85,19.73,39.85,0,110.8,13.25,19.66,90.6
"2010-06-27 01:35:30",236811,2.537,129.6,1.634,0.074,17.94,107.6414,18.84,19.73,39.87,0,110.8,13.25,19.66,91.6
"2010-06-27 01:36:00",236812,2.412,132.9,1.193,0.04,17.97,107.6382,18.83,19.72,39.83,0,110.8,13.25,19.65,94.9
"2010-06-27 01:36:30",236813,2.454,132.2,1.555,0.072,17.98,107.6336,18.82,19.71,39.92,0,110.8,13.25,19.64,94.2
"2010-06-27 01:37:00",236814,2.207,136.9,2.87,0.209,18.12,107.6263,18.8,19.7,39.82,0,110.8,13.24,19.62,98.9
"2010-06-27 01:37:30",236815,1.983,135.3,0.723,0.026,18.15,107.6302,18.81,19.71,39.69,0,110.9,13.24,19.63,97.3
"2010-06-27 01:38:00",236816,1.865,135.4,1.771,0.044,18.01,107.6319,18.82,19.7,39.72,0,110.8,13.25,19.63,97.4
"2010-06-27 01:38:30",236817,1.863,139.6,2.364,0.081,18.07,107.6395,18.84,19.71,39.7,0,110.8,13.25,19.65,101.6
"2010-06-27 01:39:00",236818,2.093,142.6,1.336,0.166,17.98,107.6431,18.84,19.71,39.72,0,110.9,13.25,19.66,104.6
"2010-06-27 01:39:30",236819,2.42,144.6,2.851,0.172,17.84,107.6344,18.82,19.7,39.98,0,110.9,13.25,19.64,106.6
"2010-06-27 01:40:00",236820,2.599,144.6,6.391,0.185,17.81,107.6226,18.79,19.7,40.1,0,110.9,13.25,19.61,106.6
"2010-06-27 01:40:30",236821,2.642,147.9,5.445,0.153,17.88,107.6206,18.79,19.69,40.04,0,110.9,13.25,19.60,109.9
"2010-06-27 01:41:00",236822,2.776,144.9,2.301,0.115,17.92,107.6206,18.79,19.67,40.19,0,110.9,13.25,19.60,106.9
"2010-06-27 01:41:30",236823,2.661,142.2,3.812,0.075,17.76,107.6209,18.79,19.68,40.31,0,110.9,13.25,19.60,104.2
"2010-06-27 01:42:00",236824,2.683,147.3,2.153,0.116,17.85,107.6175,18.78,19.65,40.33,0,110.9,13.25,19.60,109.3
"2010-06-27 01:42:30",236825,2.984,143.6,3.818,0.232,17.69,107.6056,18.75,19.64,40.63,0,110.9,13.25,19.57,105.6
"2010-06-27 01:43:00",236826,2.72,152.8,5.746,0.254,17.76,107.585,18.7,19.63,40.99,0,110.9,13.25,19.51,114.8
"2010-06-27 01:43:30",236827,3.075,142.1,3.657,0.233,17.76,107.5847,18.69,19.6,41.22,0,110.9,13.25,19.51,104.1
"2010-06-27 01:44:00",236828,2.802,146,5.353,0.126,17.77,107.5832,18.69,19.57,41.06,0,110.9,13.25,19.51,108.0
"2010-06-27 01:44:30",236829,2.843,148,3.056,0.172,17.7,107.5734,18.67,19.56,41.03,0,110.9,13.25,19.48,110.0
"2010-06-27 01:45:00",236830,2.527,148.6,2.191,0.149,17.69,107.567,18.65,19.55,40.94,0,110.9,13.25,19.47,110.6
"2010-06-27 01:45:30",236831,2.162,153.9,3.532,0.122,17.63,107.563,18.64,19.54,40.84,0,110.9,13.25,19.46,115.9
"2010-06-27 01:46:00",236832,2.274,149.6,1.907,0.111,17.6,107.5696,18.66,19.56,40.78,0,110.9,13.25,19.47,111.6
"2010-06-27 01:46:30",236833,2.384,159.7,2.064,0.099,17.69,107.5666,18.65,19.53,40.76,0,110.9,13.25,19.47,121.7
"2010-06-27 01:47:00",236834,2.413,159.4,2.421,0.181,17.71,107.5635,18.64,19.54,40.71,0,110.9,13.25,19.46,121.4
"2010-06-27 01:47:30",236835,2.072,163.6,3.773,0.079,17.63,107.562,18.64,19.55,40.67,0,110.9,13.25,19.45,125.6
"2010-06-27 01:48:00",236836,2.081,171.1,2.479,0.063,17.69,107.5617,18.64,19.56,40.59,0,110.9,13.25,19.45,133.1
"2010-06-27 01:48:30",236837,1.713,177.9,3.188,0.114,17.81,107.5616,18.64,19.57,40.49,0,110.9,13.25,19.45,139.9